Location: Cheyres
(46.8153°N, 6.7877°E)
Time: 02:39:22
(UTC+00:00)

Cosmos 990 Rocket - Pass Details

Date: 11 May 2021
Orbit: 746 x 769 km, 74.0° (Epoch: 18 June)

Event Time Altitude Azimuth Distance (km) Brightness Sun altitude
Exits shadow 21:20:03 36° 142° (SE) 1,192 4.4 -18.9°
Maximum altitude 21:21:23 44° 104° (ESE) 1,054 4.4 -19.0°
Drops below altitude 10° 21:26:21 10° 34° (NNE) 2,317 6.8 -19.4°
Sets 21:28:49 0° 28° (NNE) 3,249 7.7 -19.6°
